This demonstration page uses our WeatherBlox Daily Observations layout. Learn more.

Left ArrowRight Arrow

39.92423, -83.80882

Hourly Observations for August 6, 2016

Temp ( °F °C ) Dew Point ( °F °C ) Humidity (%) Winds ( mph kmh ) Pressure ( in mb ) Visibility ( mi km ) Precip ( " mm )
12:56 am 00:56 Mostly Cloudy 77 25 72 22.2 85 85 W 7 11 29.89 1012 10 16.0934 N/A
1:56 am 01:56 Cloudy 77 25 72 22.2 85 85 WNW 7 11 29.89 1012 10 16.0934 N/A
2:27 am 02:27 Cloudy 77 25 72 22 83 83 WNW 8 13 29.88 1012 9 14.48406 N/A
2:41 am 02:41 Cloudy with Light Rain 75 24 72 22 89 89 WNW 6 9 29.88 1012 10 16.0934 N/A
2:56 am 02:56 Cloudy 75 23.9 72 22.2 90 90 NW 7 11 29.88 1012 10 16.0934 N/A
3:56 am 03:56 Cloudy 74 23.3 72 22.2 94 94 NNW 7 11 29.88 1012 10 16.0934 N/A
4:45 am 04:45 Cloudy 73 23 70 21 89 89 NW 7 11 29.91 1013 10 16.0934 N/A
4:56 am 04:56 Cloudy 72 22.2 68 20 87 87 N 5 7 29.89 1012 10 16.0934 N/A
5:56 am 05:56 Cloudy 71 21.7 66 18.9 84 84 NW 3 6 29.9 1013 10 16.0934 N/A
6:56 am 06:56 Mostly Cloudy 69 20.6 64 17.8 84 84 undefined N/A 29.92 1013 10 16.0934 N/A
7:56 am 07:56 Sunny 70 21.1 64 17.8 82 82 N 7 11 29.93 1013 10 16.0934 N/A
8:56 am 08:56 Partly Cloudy 72 22.2 63 17.2 73 73 undefined N/A 29.94 1014 10 16.0934 N/A
9:56 am 09:56 Sunny 75 23.9 63 17.2 66 66 N 8 13 29.93 1014 10 16.0934 N/A
10:56 am 10:56 Sunny 76 24.4 63 17.2 64 64 NNW 7 11 N/A 10 16.0934 N/A
11:56 am 11:56 Sunny 78 25.6 63 17.2 60 60 WNW 7 11 29.94 1014 10 16.0934 N/A
12:56 pm 12:56 Partly Cloudy 80 26.7 61 16.1 52 52 NW 8 13 29.94 1014 10 16.0934 N/A
1:56 pm 13:56 Partly Cloudy 83 28.3 62 16.7 49 49 NW 9 15 29.93 1014 10 16.0934 N/A
2:56 pm 14:56 Sunny 83 28.3 58 14.4 43 43 N 9 15 29.93 1014 10 16.0934 N/A
3:56 pm 15:56 Sunny 83 28.3 60 15.6 46 46 NNW 12 19 29.92 1013 10 16.0934 N/A
4:56 pm 16:56 Sunny 82 27.8 61 16.1 49 49 W 6 9 29.91 1013 10 16.0934 N/A
5:56 pm 17:56 Mostly Sunny 82 27.8 62 16.7 51 51 WSW 7 11 29.89 1012 10 16.0934 N/A
6:56 pm 18:56 Sunny 83 28.3 57 13.9 41 41 undefined N/A N/A 10 16.0934 N/A
7:56 pm 19:56 Sunny 80 26.7 58 14.4 47 47 N 8 13 29.91 1013 10 16.0934 N/A
8:56 pm 20:56 Clear 76 24.4 58 14.4 54 54 NNE 3 6 29.93 1013 10 16.0934 N/A
9:56 pm 21:56 Clear 69 20.6 60 15.6 73 73 SE 3 6 29.95 1014 10 16.0934 N/A
10:56 pm 22:56 Clear 68 20 59 15 73 73 N N/A 29.96 1015 10 16.0934 N/A
11:56 pm 23:56 Clear 66 18.9 60 15.6 81 81 N N/A 29.96 1014 10 16.0934 N/A

Powered by AerisWeather